Weather in Bijapur

India     16°49′33″N   75°43′29″E
temp.,
°C
wind,
m/s
gust,
m/s
humid.,
%
clouds,
%
prec.,
mm/h
press.,
hPa
HPBL,
m
22 april, thu
thu2223:30+34nw5818100 0.0 1009531
02:30+30nnw7113061 0.0 1009940
05:30+28nnw7133298 0.0 1010394
08:30+32nne101126100 0.0 10111126
11:30+36ne8618100 0.0 10102400
14:30+38nne5416100 0.0 10074055
17:30+37nnw6415100 0.0 10063486
20:30+35nnw4616100 0.0 1008261
23 april, fri
fri2323:30+33wsw2328100 0.0 1009246
02:30+29s564624 0.0 1009400
05:30+26sw6859100 0.0 1009328
08:30+28wsw664777 0.0 1012548
11:30+34sw332830 0.0 10101801
14:30+37se2220100 0.0 10063880
17:30+34nw9624100 0.0 10061804
20:30+32ese6728100 0.0 1008274
24 april, sat
sat2423:30+32ssw673147 0.0 1009783
02:30+29wsw56416 0.0 1008336
05:30+26wsw57464 0.0 1009166
08:30+30wnw45285 0.0 1011677
11:30+36n55175 0.0 10091979
14:30+38nne231523 0.0 10063733
17:30+38nnw231551 0.0 10044003
20:30+37e441594 0.0 10072223
25 april, sun
sun2523:30+31wsw10103330 0.0 1008439
02:30+28sw45415 0.0 1008324
05:30+27sw78467 0.0 1009215
08:30+30w663531 0.0 1011468
11:30+37nne45205 0.0 10092673
14:30+39ene431625 0.0 10053974
17:30+39e331546 0.0 10044092
20:30+36s682119 0.0 1006525
26 april, mon
mon2623:30+32sw1433100 0.4 1009303
02:30+30s5641100 0.3 1008461
05:30+28s6737100 0.3 1008207
08:30+33wnw763188 0.0 1009494
11:30+37nw441977 0.0 10082867
14:30+38ene2216100 0.0 10044351
17:30+35ene1320100 0.6 1004244
20:30+33sse692494 0.1 1006330